Date String (YYYY-MM-DD hh:mm:ss) UTC,Instrument flags,Ambient pressure (hPa),Sample flow (lpm),Bypass flow (lpm),Sample temperature (°C),Ambient temperature (°C),ASC tube jacket temperature (°C),LED temperature (°C),Box temperature (°C),Sample RH (%),Span deviation,Mass concentration (μg/m³),Mass concentration (μg/m³),Mass concentration (μg/m³)
DateTimeUTC,F1_M11,P_M11,Q1_M11,Q2_M11,T1_M11,T2_M11,T3_M11,T4_M11,T5_M11,U1_M11,ZSPAN_M11,X0_M11,X2_M11,X1_M11
2022-09-24 03:00:00,,0829.0,4.99,0.00,30.3,29.0,00.0,39.1,32.2,10.3,0000.0,0003.41,0002.07,0001.64
2022-09-24 03:01:00,,0829.0,5.01,0.00,30.3,28.0,00.0,39.0,32.1,10.1,0000.0,0003.29,0002.07,0001.65
2022-09-24 03:02:00,,0829.0,5.00,0.00,30.3,26.9,00.0,39.0,32.0,10.0,0000.0,0003.46,0002.08,0001.65
2022-09-24 03:03:00,,0829.0,5.00,0.00,30.2,26.9,00.0,38.9,32.0,10.0,0000.0,0003.35,0002.06,0001.65
2022-09-24 03:04:00,,0829.0,5.00,0.00,30.2,27.1,00.0,38.9,31.8,10.0,0000.0,0003.33,0002.09,0001.64
2022-09-24 03:05:00,,0829.0,4.99,0.00,30.1,27.4,00.0,38.9,31.8,10.1,0000.0,0003.34,0002.10,0001.63
2022-09-24 03:06:00,,0829.0,4.99,0.00,30.1,27.7,00.0,38.9,31.8,10.3,0000.0,0003.41,0002.13,0001.60
2022-09-24 03:07:00,,0828.9,5.01,0.00,30.0,27.9,00.0,38.9,31.8,10.2,0000.0,0003.83,0002.10,0001.57
2022-09-24 03:08:00,,0828.8,5.00,0.00,30.0,28.0,00.0,38.8,31.8,10.2,0000.0,0004.13,0002.06,0001.52
2022-09-24 03:09:00,,0829.0,4.99,0.00,30.0,28.1,00.0,38.8,31.7,10.2,0000.0,0004.18,0002.07,0001.50
2022-09-24 03:10:00,,0828.7,5.01,0.00,30.0,28.3,00.0,38.8,31.8,10.2,0000.0,0004.17,0002.06,0001.50
2022-09-24 03:11:00,,0828.8,5.00,0.00,30.0,28.4,00.0,38.8,31.9,10.3,0000.0,0004.18,0002.06,0001.49
2022-09-24 03:12:00,,0829.0,5.00,0.00,30.0,28.5,00.0,38.8,31.9,10.2,0000.0,0004.23,0002.07,0001.49
2022-09-24 03:13:00,,0828.9,4.99,0.00,30.0,28.5,00.0,38.8,31.9,10.3,0000.0,0004.17,0002.08,0001.49
2022-09-24 03:14:00,,0828.8,5.01,0.00,30.0,28.6,00.0,38.8,31.9,10.5,0000.0,0004.31,0002.11,0001.48
2022-09-24 03:15:00,,0828.6,4.99,0.00,30.0,28.6,00.0,38.8,31.9,10.3,0000.0,0004.23,0002.06,0001.48
2022-09-24 03:16:00,,0828.5,5.00,0.00,30.0,28.6,00.0,38.8,31.9,10.3,0000.0,0004.27,0002.08,0001.48
2022-09-24 03:17:00,,0828.8,5.01,0.00,30.0,28.7,00.0,38.8,31.9,10.3,0000.0,0004.13,0002.02,0001.47
2022-09-24 03:18:00,,0829.0,5.00,0.00,30.0,28.7,00.0,38.8,31.9,10.4,0000.0,0003.75,0001.99,0001.47
2022-09-24 03:19:00,,0828.8,4.99,0.00,30.0,28.7,00.0,38.8,31.9,10.3,0000.0,0003.38,0001.94,0001.48
2022-09-24 03:20:00,,0828.8,5.02,0.00,30.0,28.7,00.0,38.8,31.9,10.3,0000.0,0003.72,0001.96,0001.48
2022-09-24 03:21:00,,0829.2,5.00,0.00,30.0,28.7,00.0,38.8,31.9,10.2,0000.0,0004.44,0002.01,0001.48
2022-09-24 03:22:00,,0829.1,5.00,0.00,30.0,28.7,00.0,38.8,31.9,10.3,0000.0,0004.49,0002.02,0001.49
2022-09-24 03:23:00,,0828.8,5.01,0.00,30.1,28.8,00.0,38.8,32.0,10.3,0000.0,0004.42,0001.99,0001.48
2022-09-24 03:24:00,,0828.7,5.00,0.00,30.1,28.8,00.0,38.8,32.0,10.2,0000.0,0004.46,0001.99,0001.48
2022-09-24 03:25:00,,0828.7,4.99,0.00,30.1,28.8,00.0,38.9,32.0,10.2,0000.0,0004.37,0001.97,0001.48
2022-09-24 03:26:00,,0828.8,4.99,0.00,30.1,28.8,00.0,38.9,32.0,10.2,0000.0,0004.48,0001.98,0001.49
2022-09-24 03:27:00,,0829.1,5.01,0.00,30.1,28.9,00.0,38.9,32.0,10.3,0000.0,0004.32,0001.91,0001.48
2022-09-24 03:28:00,,0829.3,5.00,0.00,30.1,28.9,00.0,38.9,32.0,10.2,0000.0,0004.34,0001.93,0001.48
2022-09-24 03:29:00,,0829.3,4.99,0.00,30.2,29.0,00.0,38.9,32.1,10.3,0000.0,0004.97,0001.96,0001.50
2022-09-24 03:30:00,,0829.1,5.02,0.00,30.2,29.0,00.0,38.9,32.1,10.2,0000.0,0006.08,0001.94,0001.49
2022-09-24 03:31:00,,0829.0,4.99,0.00,30.2,29.0,00.0,38.9,32.1,10.2,0000.0,0006.05,0001.91,0001.49
2022-09-24 03:32:00,,0828.8,4.99,0.00,30.2,29.0,00.0,38.9,32.1,10.3,0000.0,0005.61,0001.90,0001.48
2022-09-24 03:33:00,,0828.8,4.99,0.00,30.2,29.0,00.0,39.0,32.1,10.4,0000.0,0006.25,0001.91,0001.48
2022-09-24 03:34:00,,0828.9,5.01,0.00,30.3,29.0,00.0,39.0,32.1,10.4,0000.0,0006.89,0001.91,0001.48
2022-09-24 03:35:00,,0829.0,4.98,0.00,30.3,29.0,00.0,39.0,32.1,10.4,0000.0,0006.73,0001.90,0001.48
2022-09-24 03:36:00,,0828.9,5.02,0.00,30.3,29.0,00.0,39.0,32.2,10.5,0000.0,0006.71,0001.90,0001.48
2022-09-24 03:37:00,,0828.9,4.99,0.00,30.3,29.1,00.0,39.0,32.2,10.6,0000.0,0006.63,0001.91,0001.49
2022-09-24 03:38:00,,0828.9,5.00,0.00,30.3,29.1,00.0,39.0,32.2,10.6,0000.0,0006.67,0001.93,0001.50
2022-09-24 03:39:00,,0828.9,5.00,0.00,30.4,29.1,00.0,39.0,32.2,10.6,0000.0,0006.70,0001.93,0001.50
2022-09-24 03:40:00,,0828.9,5.01,0.00,30.4,29.1,00.0,39.1,32.2,10.5,0000.0,0006.63,0001.91,0001.51
2022-09-24 03:41:00,,0828.9,4.99,0.00,30.4,29.1,00.0,39.1,32.3,10.6,0000.0,0005.53,0001.92,0001.51
2022-09-24 03:42:00,,0828.9,5.01,0.00,30.4,28.0,00.0,39.1,32.2,10.7,0000.0,0005.03,0001.95,0001.51
2022-09-24 03:43:00,,0828.9,4.98,0.00,30.3,26.8,00.0,39.0,32.1,10.8,0000.0,0004.81,0001.91,0001.52
2022-09-24 03:44:00,,0828.9,5.00,0.00,30.3,26.8,00.0,39.0,32.0,10.9,0000.0,0004.33,0001.89,0001.52
2022-09-24 03:45:00,,0828.9,5.00,0.00,30.2,27.0,00.0,38.9,31.8,11.0,0000.0,0003.61,0001.92,0001.53
2022-09-24 03:46:00,,0828.8,5.01,0.00,30.1,27.3,00.0,38.9,31.8,10.9,0000.0,0003.80,0001.97,0001.54
2022-09-24 03:47:00,,0828.9,5.00,0.00,30.1,27.6,00.0,38.9,31.7,11.2,0000.0,0003.92,0002.01,0001.54
2022-09-24 03:48:00,,0829.3,5.01,0.00,30.1,27.9,00.0,38.9,31.8,10.9,0000.0,0004.10,0002.04,0001.54
2022-09-24 03:49:00,,0829.3,4.99,0.00,30.1,28.0,00.0,38.8,31.8,10.9,0000.0,0004.27,0002.09,0001.55
2022-09-24 03:50:00,,0829.2,5.00,0.00,30.0,28.2,00.0,38.8,31.8,10.8,0000.0,0005.44,0002.11,0001.54
2022-09-24 03:51:00,,0829.1,4.99,0.00,30.0,28.3,00.0,38.8,31.9,10.9,0000.0,0004.89,0002.13,0001.53
2022-09-24 03:52:00,,0829.2,5.01,0.00,30.1,28.4,00.0,38.8,31.9,10.9,0000.0,0004.93,0002.15,0001.52
2022-09-24 03:53:00,,0829.3,4.99,0.00,30.1,28.5,00.0,38.8,31.9,10.7,0000.0,0004.84,0002.13,0001.52
2022-09-24 03:54:00,,0829.2,5.01,0.00,30.1,28.5,00.0,38.8,31.9,10.6,0000.0,0005.05,0002.18,0001.52
2022-09-24 03:55:00,,0829.3,4.99,0.00,30.1,28.5,00.0,38.8,31.9,10.7,0000.0,0005.11,0002.23,0001.53
2022-09-24 03:56:00,,0829.3,5.02,0.00,30.1,28.6,00.0,38.8,31.9,10.7,0000.0,0005.14,0002.22,0001.51
2022-09-24 03:57:00,,0829.3,5.00,0.00,30.1,28.6,00.0,38.8,31.9,10.9,0000.0,0005.14,0002.19,0001.49
2022-09-24 03:58:00,,0829.3,5.01,0.00,30.1,28.6,00.0,38.8,31.9,11.0,0000.0,0005.16,0002.16,0001.50
2022-09-24 03:59:00,,0828.9,5.00,0.00,30.1,28.6,00.0,38.8,31.9,11.2,0000.0,0005.20,0002.10,0001.48
